Location: Roanoke
(37.2710°N, 79.9420°W)
Time: 18:47:55
(UTC-05:00)

Transit 2A - Pass Details

Date: 28 November 2019
Orbit: 602 x 957 km, 66.7° (Epoch: 12 December)

Event Time Altitude Azimuth Distance (km) Brightness Sun altitude
Rises 10:08:51 0° 215° (SW) 3,217 9.5 25.1°
Reaches altitude 10° 10:11:22 10° 219° (SW) 2,236 8.8 25.3°
Maximum altitude 10:16:21 60° 299° (WNW) 784 6.2 25.8°
Drops below altitude 10° 10:20:56 10° 20° (NNE) 2,051 7.9 26.2°
Sets 10:23:10 0° 24° (NNE) 2,928 8.7 26.4°
